This demonstration page uses our WeatherBlox Daily Observations layout. Learn more.

Left ArrowRight Arrow

39.01783, -85.05884

Hourly Observations for May 4, 2022

Temp ( °F °C ) Dew Point ( °F °C ) Humidity (%) Winds ( mph kmh ) Pressure ( in mb ) Visibility ( mi km ) Precip ( " mm )
12:52 am 00:52 Mostly Clear 60 15.6 56 13.3 86 86 WNW 12 19 29.90 1013 10 16 0.00 0.00
1:52 am 01:52 Partly Cloudy 58 14.4 55 12.8 90 90 WNW 8 13 29.91 1013 10 16 0.00 0.00
2:52 am 02:52 Cloudy 58 14.4 55 12.8 90 90 WNW 12 19 29.91 1013 10 16 0.00 0.00
3:17 am 03:17 Cloudy 58 14.4 55 12.8 90 90 WNW 12 19 29.93 1013 10 16 0.00 0.00
3:52 am 03:52 Cloudy 57 13.9 52 11.1 83 83 WNW 12 19 29.92 1013 10 16 0.00 0.00
4:52 am 04:52 Cloudy 55 12.8 51 10.6 87 87 WNW 13 20 29.94 1014 10 16 0.00 0.00
5:19 am 05:19 Cloudy 55 12.8 51 10.6 87 87 WNW 10 17 29.97 1015 9 14 0.00 0.00
5:52 am 05:52 Cloudy 54 12.2 51 10.6 90 90 NW 13 20 29.96 1015 8 13 0.00 0.00
6:52 am 06:52 Cloudy with Mist and Fog 52 11.1 50 10 93 93 NW 14 22 30.00 1016 5 8 0.00 0.00
7:52 am 07:52 Cloudy with Mist and Fog 52 11.1 50 10 93 93 NW 7 11 30.03 1017 6 10 0.00 0.00
8:52 am 08:52 Cloudy 53 11.7 50 10 89 89 NW 12 19 30.05 1018 8 13 0.00 0.00
9:52 am 09:52 Cloudy 53 11.7 50 10 89 89 NNW 10 17 30.07 1018 10 16 0.00 0.00
10:23 am 10:23 Cloudy 54 12.2 51 10.6 90 90 NW 9 15 30.09 1019 10 16 0.00 0.00
10:52 am 10:52 Cloudy 54 12.2 51 10.6 90 90 NW 8 13 30.09 1019 10 16 0.00 0.00
11:52 am 11:52 Cloudy 56 13.3 50 10 81 81 N 7 11 30.10 1019 10 16 0.00 0.00
12:08 pm 12:08 Cloudy 56 13.3 51 10.6 84 84 NW 9 15 30.12 1020 10 16 0.00 0.00
12:40 pm 12:40 Cloudy 57 13.9 51 10.6 81 81 NW 7 11 30.13 1020 10 16 0.00 0.00
12:52 pm 12:52 Cloudy 56 13.3 50 10 81 81 N 10 17 30.11 1020 10 16 0.00 0.00
1:52 pm 13:52 Cloudy 56 13.3 50 10 81 81 NNW 12 19 30.11 1020 10 16 0.00 0.00
2:52 pm 14:52 Cloudy 59 15 51 10.6 75 75 NNW 5 7 30.11 1020 10 16 0.00 0.00
3:52 pm 15:52 Cloudy 58 14.4 50 10 75 75 N 3 6 30.11 1020 10 16 0.00 0.00
4:52 pm 16:52 Cloudy 58 14.4 50 10 75 75 NNW 7 11 30.11 1020 10 16 0.00 0.00
5:52 pm 17:52 Cloudy 59 15 50 10 72 72 VRB 3 6 30.12 1020 10 16 0.00 0.00
6:52 pm 18:52 Cloudy 59 15 50 10 72 72 NNW 6 9 30.12 1020 10 16 0.00 0.00
7:52 pm 19:52 Cloudy 58 14.4 51 10.6 78 78 NW 7 11 30.13 1020 10 16 0.00 0.00
8:52 pm 20:52 Cloudy 57 13.9 51 10.6 81 81 N 9 15 30.15 1021 10 16 0.00 0.00
9:52 pm 21:52 Cloudy 56 13.3 51 10.6 84 84 N 8 13 30.16 1021 10 16 0.00 0.00
10:52 pm 22:52 Cloudy 56 13.3 51 10.6 84 84 NNE 13 20 30.17 1022 10 16 0.00 0.00
11:52 pm 23:52 Cloudy 56 13.3 51 10.6 84 84 NE 10 17 30.15 1021 10 16 0.00 0.00

Powered by AerisWeather